�������l�o���
Date,Time,MP-1(��Sv/h),MP-2(��Sv/h),MP-3(��Sv/h),MP-4(��Sv/h),MP-5(��Sv/h),MP-6(��Sv/h),MP-7(��Sv/h),MP-8(��Sv/h),����,����(m/s),���J
2024/02/12,00:00,0.505,0.766,0.482,0.959,0.689,0.311,0.554,0.519,�k��,5.4,��
2024/02/12,00:10,0.506,0.766,0.482,0.959,0.688,0.309,0.555,0.519,�k��,4.7,��
2024/02/12,00:20,0.505,0.766,0.481,0.960,0.690,0.310,0.553,0.519,�k��,5.3,��
2024/02/12,00:30,0.506,0.766,0.481,0.959,0.690,0.310,0.554,0.520,�k��,5.5,��
2024/02/12,00:40,0.505,0.766,0.480,0.959,0.690,0.310,0.553,0.520,�k��,5.8,��
2024/02/12,00:50,0.505,0.767,0.482,0.957,0.689,0.310,0.553,0.521,�k��,7.4,��
2024/02/12,01:00,0.505,0.764,0.483,0.961,0.690,0.310,0.554,0.520,�k��,7.0,��
2024/02/12,01:10,0.506,0.769,0.481,0.959,0.690,0.309,0.555,0.519,�k��,6.3,��
2024/02/12,01:20,0.506,0.766,0.482,0.959,0.690,0.310,0.554,0.522,�k��,6.7,��
2024/02/12,01:30,0.506,0.767,0.482,0.961,0.690,0.310,0.554,0.519,�k��,6.5,��
2024/02/12,01:40,0.506,0.767,0.481,0.962,0.691,0.310,0.554,0.520,�k��,5.7,��
2024/02/12,01:50,0.504,0.764,0.481,0.962,0.688,0.309,0.554,0.518,�k��,6.6,��
2024/02/12,02:00,0.504,0.767,0.480,0.960,0.689,0.311,0.554,0.519,�k��,6.9,��
2024/02/12,02:10,0.507,0.766,0.481,0.959,0.690,0.310,0.554,0.519,�k��,5.6,��
2024/02/12,02:20,0.505,0.769,0.482,0.960,0.690,0.309,0.554,0.521,�k��,4.8,��
2024/02/12,02:30,0.506,0.766,0.481,0.960,0.689,0.310,0.554,0.520,�k��,5.0,��
2024/02/12,02:40,0.505,0.767,0.481,0.959,0.690,0.309,0.553,0.520,�k��,5.5,��
2024/02/12,02:50,0.505,0.767,0.481,0.961,0.690,0.311,0.555,0.520,�k�k��,6.6,��
2024/02/12,03:00,0.505,0.765,0.482,0.959,0.689,0.310,0.555,0.520,�k�k��,7.1,��
2024/02/12,03:10,0.506,0.768,0.482,0.958,0.689,0.309,0.554,0.520,�k�k��,6.9,��
2024/02/12,03:20,0.507,0.767,0.481,0.960,0.690,0.310,0.555,0.520,�k�k��,6.0,��
2024/02/12,03:30,0.506,0.767,0.482,0.961,0.691,0.309,0.555,0.520,�k�k��,7.1,��
2024/02/12,03:40,0.505,0.766,0.481,0.959,0.691,0.310,0.555,0.520,�k��,7.0,��
2024/02/12,03:50,0.505,0.767,0.481,0.960,0.689,0.310,0.554,0.519,�k��,7.6,��
2024/02/12,04:00,0.506,0.767,0.482,0.960,0.690,0.309,0.555,0.518,�k��,8.3,��
2024/02/12,04:10,0.505,0.767,0.482,0.960,0.689,0.311,0.555,0.520,�k��,7.8,��
2024/02/12,04:20,0.505,0.766,0.482,0.960,0.689,0.310,0.556,0.520,�k��,7.1,��
2024/02/12,04:30,0.506,0.767,0.482,0.958,0.689,0.310,0.554,0.520,�k��,6.2,��
2024/02/12,04:40,0.507,0.767,0.482,0.960,0.689,0.310,0.554,0.519,�k��,4.3,��
2024/02/12,04:50,0.505,0.765,0.482,0.959,0.689,0.310,0.555,0.520,�k��,4.0,��
2024/02/12,05:00,0.505,0.767,0.481,0.960,0.688,0.308,0.554,0.520,�k��,3.9,��
2024/02/12,05:10,0.505,0.765,0.482,0.960,0.688,0.310,0.555,0.520,�k��,4.1,��
2024/02/12,05:20,0.506,0.764,0.482,0.961,0.688,0.310,0.554,0.520,�k�k��,3.7,��
2024/02/12,05:30,0.504,0.766,0.481,0.960,0.687,0.310,0.553,0.520,�k�k��,4.0,��
2024/02/12,05:40,0.505,0.764,0.481,0.960,0.688,0.309,0.555,0.520,�k�k��,4.1,��
2024/02/12,05:50,0.507,0.768,0.481,0.958,0.689,0.309,0.552,0.520,�k�k��,4.8,��
2024/02/12,06:00,0.506,0.766,0.482,0.959,0.688,0.309,0.554,0.519,�k�k��,4.3,��
2024/02/12,06:10,0.506,0.766,0.482,0.960,0.690,0.310,0.552,0.522,�k�k��,4.7,��
2024/02/12,06:20,0.506,0.765,0.481,0.959,0.688,0.310,0.553,0.519,�k�k��,5.8,��
2024/02/12,06:30,0.506,0.765,0.481,0.959,0.687,0.311,0.555,0.520,�k�k��,6.4,��
2024/02/12,06:40,0.506,0.766,0.482,0.957,0.687,0.310,0.554,0.521,�k�k��,6.8,��
2024/02/12,06:50,0.506,0.765,0.482,0.959,0.689,0.310,0.554,0.520,�k�k��,6.9,��
2024/02/12,07:00,0.506,0.768,0.480,0.960,0.687,0.310,0.554,0.520,�k�k��,5.8,��
2024/02/12,07:10,0.506,0.765,0.482,0.960,0.690,0.309,0.555,0.519,�k�k��,6.2,��
2024/02/12,07:20,0.506,0.766,0.482,0.959,0.689,0.310,0.555,0.519,�k�k��,6.5,��
2024/02/12,07:30,0.506,0.766,0.482,0.959,0.687,0.309,0.553,0.519,�k�k��,5.5,��
2024/02/12,07:40,0.505,0.766,0.481,0.959,0.688,0.310,0.555,0.520,�k�k��,5.9,��
2024/02/12,07:50,0.507,0.767,0.480,0.961,0.688,0.310,0.555,0.520,�k�k��,5.5,��
2024/02/12,08:00,0.505,0.767,0.482,0.961,0.690,0.311,0.553,0.519,�k�k��,5.4,��
2024/02/12,08:10,0.504,0.766,0.481,0.962,0.687,0.309,0.554,0.520,�k�k��,5.4,��
2024/02/12,08:20,0.507,0.767,0.481,0.959,0.689,0.311,0.555,0.520,�k�k��,5.5,��
2024/02/12,08:30,0.506,0.765,0.482,0.959,0.688,0.309,0.555,0.518,�k�k��,5.4,��
2024/02/12,08:40,0.505,0.766,0.482,0.959,0.689,0.311,0.553,0.520,�k�k��,5.6,��
2024/02/12,08:50,0.506,0.767,0.482,0.959,0.689,0.310,0.555,0.520,�k�k��,6.3,��
2024/02/12,09:00,0.506,0.766,0.483,0.959,0.689,0.310,0.554,0.519,�k�k��,6.0,��
2024/02/12,09:10,0.506,0.768,0.482,0.960,0.689,0.310,0.554,0.520,�k�k��,6.6,��
2024/02/12,09:20,0.507,0.767,0.481,0.958,0.689,0.310,0.557,0.521,�k�k��,4.5,��
2024/02/12,09:30,0.506,0.769,0.483,0.959,0.689,0.309,0.555,0.520,�k�k��,5.6,��
2024/02/12,09:40,0.507,0.769,0.482,0.961,0.692,0.309,0.553,0.521,�k�k��,7.0,��
2024/02/12,09:50,0.507,0.768,0.481,0.961,0.690,0.310,0.553,0.520,�k,5.4,��
2024/02/12,10:00,0.507,0.769,0.481,0.959,0.689,0.311,0.555,0.520,�k,4.9,��
2024/02/12,10:10,0.507,0.768,0.479,0.960,0.689,0.310,0.554,0.521,�k,5.3,��
2024/02/12,10:20,0.508,0.766,0.481,0.962,0.690,0.311,0.554,0.520,�k,4.8,��
2024/02/12,10:30,0.506,0.768,0.482,0.962,0.691,0.311,0.553,0.519,�k�k��,4.3,��
2024/02/12,10:40,0.505,0.766,0.481,0.963,0.690,0.310,0.553,0.521,�k�k��,5.2,��
2024/02/12,10:50,0.508,0.766,0.482,0.961,0.692,0.310,0.553,0.522,�k�k��,6.7,��
2024/02/12,11:00,0.507,0.766,0.481,0.962,0.692,0.310,0.554,0.521,�k,7.0,��
2024/02/12,11:10,0.508,0.767,0.481,0.962,0.691,0.311,0.554,0.520,�k�k��,7.3,��
2024/02/12,11:20,0.507,0.767,0.483,0.962,0.692,0.310,0.553,0.521,�k�k��,7.1,��
2024/02/12,11:30,0.507,0.767,0.482,0.961,0.692,0.310,0.553,0.520,�k�k��,7.3,��
2024/02/12,11:40,0.509,0.767,0.482,0.962,0.691,0.310,0.554,0.519,�k�k��,7.0,��
2024/02/12,11:50,0.505,0.767,0.483,0.962,0.692,0.311,0.553,0.520,�k�k��,7.0,��
2024/02/12,12:00,0.507,0.766,0.482,0.962,0.690,0.309,0.552,0.520,�k�k��,8.4,��
2024/02/12,12:10,0.506,0.766,0.481,0.962,0.691,0.311,0.554,0.519,�k�k��,9.5,��
2024/02/12,12:20,0.506,0.768,0.485,0.962,0.691,0.311,0.555,0.521,�k�k��,9.2,��
2024/02/12,12:30,0.507,0.767,0.484,0.962,0.690,0.311,0.555,0.520,�k,6.3,��
2024/02/12,12:40,0.507,0.768,0.482,0.962,0.691,0.310,0.554,0.523,�k�k��,6.7,��
2024/02/12,12:50,0.509,0.770,0.484,0.961,0.692,0.311,0.553,0.523,�k��,7.6,��
2024/02/12,13:00,0.508,0.768,0.484,0.964,0.690,0.311,0.555,0.522,�k�k��,6.2,��
2024/02/12,13:10,0.508,0.768,0.484,0.963,0.693,0.312,0.554,0.520,�k��,8.4,��
2024/02/12,13:20,0.508,0.770,0.484,0.963,0.691,0.311,0.556,0.520,�k�k��,8.3,��
2024/02/12,13:30,0.509,0.768,0.484,0.961,0.691,0.310,0.554,0.519,�k�k��,7.3,��
2024/02/12,13:40,0.508,0.769,0.483,0.962,0.693,0.313,0.554,0.521,�k�k��,6.0,��
2024/02/12,13:50,0.507,0.768,0.483,0.963,0.692,0.310,0.555,0.520,�k�k��,6.7,��
2024/02/12,14:00,0.508,0.770,0.483,0.963,0.691,0.312,0.554,0.519,�k��,6.1,��
2024/02/12,14:10,0.507,0.770,0.484,0.964,0.692,0.312,0.555,0.519,�k��,9.7,��
2024/02/12,14:20,0.507,0.769,0.481,0.964,0.693,0.310,0.554,0.518,�k��,8.2,��
2024/02/12,14:30,0.508,0.770,0.483,0.961,0.691,0.311,0.554,0.519,�k��,8.2,��
2024/02/12,14:40,0.508,0.770,0.484,0.963,0.694,0.311,0.554,0.519,�k��,7.7,��
2024/02/12,14:50,0.507,0.769,0.483,0.963,0.693,0.311,0.554,0.518,�k�k��,8.3,��
2024/02/12,15:00,0.509,0.770,0.483,0.966,0.693,0.310,0.554,0.519,�k�k��,7.2,��
2024/02/12,15:10,0.508,0.767,0.485,0.965,0.692,0.313,0.555,0.520,�k��,7.0,��
2024/02/12,15:20,0.508,0.766,0.484,0.964,0.692,0.312,0.554,0.522,�k��,7.8,��
2024/02/12,15:30,0.509,0.769,0.485,0.965,0.695,0.312,0.558,0.521,�k��,7.5,��
2024/02/12,15:40,0.508,0.769,0.485,0.963,0.694,0.313,0.555,0.522,���k��,4.7,��
2024/02/12,15:50,0.507,0.771,0.485,0.964,0.694,0.311,0.556,0.521,�k�k��,7.2,��
2024/02/12,16:00,0.508,0.770,0.484,0.965,0.692,0.310,0.556,0.522,�k��,6.7,��
2024/02/12,16:10,0.510,0.771,0.484,0.965,0.693,0.311,0.556,0.520,�k��,9.6,��
2024/02/12,16:20,0.509,0.771,0.484,0.962,0.694,0.310,0.557,0.523,�k�k��,8.5,��
2024/02/12,16:30,0.510,0.771,0.485,0.965,0.692,0.310,0.557,0.522,�k�k��,8.5,��
2024/02/12,16:40,0.507,0.770,0.484,0.962,0.691,0.312,0.557,0.521,�k�k��,7.0,��
2024/02/12,16:50,0.507,0.771,0.484,0.962,0.693,0.311,0.556,0.521,�k��,6.4,��
2024/02/12,17:00,0.509,0.768,0.482,0.965,0.694,0.310,0.557,0.521,�k��,6.6,��
2024/02/12,17:10,0.508,0.770,0.484,0.963,0.695,0.309,0.555,0.521,�k��,8.2,��
2024/02/12,17:20,0.508,0.769,0.482,0.963,0.694,0.311,0.556,0.521,�k��,5.5,��
2024/02/12,17:30,0.507,0.770,0.484,0.963,0.695,0.311,0.556,0.521,�k��,6.7,��
2024/02/12,17:40,0.509,0.770,0.483,0.961,0.694,0.311,0.556,0.520,���k��,6.5,��
2024/02/12,17:50,0.509,0.770,0.484,0.964,0.694,0.312,0.556,0.521,�k��,6.4,��
2024/02/12,18:00,0.508,0.771,0.484,0.964,0.694,0.311,0.557,0.522,�k��,7.2,��
2024/02/12,18:10,0.509,0.771,0.484,0.964,0.694,0.309,0.556,0.521,�k��,4.3,��
2024/02/12,18:20,0.507,0.769,0.484,0.964,0.691,0.311,0.555,0.520,���k��,5.2,��
2024/02/12,18:30,0.507,0.769,0.486,0.964,0.694,0.310,0.556,0.520,���k��,4.7,��
2024/02/12,18:40,0.507,0.769,0.484,0.961,0.691,0.310,0.555,0.521,���k��,3.7,��
2024/02/12,18:50,0.507,0.770,0.484,0.963,0.695,0.310,0.554,0.520,���k��,4.1,��
2024/02/12,19:00,0.508,0.767,0.482,0.965,0.693,0.309,0.555,0.519,���k��,3.6,��
2024/02/12,19:10,0.508,0.772,0.482,0.963,0.695,0.309,0.554,0.520,��,2.5,��
2024/02/12,19:20,0.506,0.769,0.483,0.966,0.692,0.310,0.553,0.518,���쐼,0.8,��
2024/02/12,19:30,0.507,0.769,0.483,0.963,0.694,0.309,0.555,0.521,��,2.0,��
2024/02/12,19:40,0.506,0.770,0.482,0.963,0.693,0.309,0.555,0.520,���쐼,2.0,��
2024/02/12,19:50,0.506,0.772,0.482,0.962,0.694,0.310,0.555,0.520,��,2.6,��
2024/02/12,20:00,0.507,0.770,0.483,0.963,0.693,0.310,0.556,0.519,��,3.2,��
2024/02/12,20:10,0.508,0.771,0.483,0.963,0.693,0.309,0.554,0.519,��,5.4,��
2024/02/12,20:20,0.509,0.768,0.482,0.963,0.694,0.309,0.554,0.518,��,5.8,��
2024/02/12,20:30,0.507,0.769,0.482,0.964,0.692,0.309,0.554,0.520,���k��,4.2,��
2024/02/12,20:40,0.507,0.772,0.482,0.964,0.694,0.310,0.554,0.520,���k��,4.9,��
2024/02/12,20:50,0.506,0.770,0.484,0.962,0.692,0.310,0.553,0.520,���k��,4.6,��
2024/02/12,21:00,0.506,0.768,0.482,0.961,0.694,0.309,0.553,0.519,���k��,4.6,��
2024/02/12,21:10,0.508,0.772,0.483,0.961,0.694,0.311,0.554,0.519,���k��,6.5,��
2024/02/12,21:20,0.507,0.770,0.481,0.963,0.694,0.310,0.553,0.519,���k��,5.8,��
2024/02/12,21:30,0.508,0.770,0.482,0.963,0.692,0.310,0.554,0.519,���k��,5.3,��
2024/02/12,21:40,0.506,0.769,0.482,0.963,0.693,0.309,0.554,0.519,���k��,4.3,��
2024/02/12,21:50,0.507,0.769,0.482,0.964,0.694,0.309,0.553,0.520,���k��,4.1,��
2024/02/12,22:00,0.507,0.767,0.482,0.964,0.692,0.310,0.554,0.520,���k��,3.7,��
2024/02/12,22:10,0.507,0.768,0.482,0.962,0.693,0.308,0.552,0.519,�k��,4.4,��
2024/02/12,22:20,0.507,0.768,0.482,0.963,0.694,0.309,0.553,0.518,���k��,4.6,��
2024/02/12,22:30,0.507,0.768,0.482,0.962,0.693,0.309,0.553,0.519,�k��,4.5,��
2024/02/12,22:40,0.505,0.770,0.480,0.963,0.692,0.309,0.553,0.520,�k��,4.0,��
2024/02/12,22:50,0.506,0.771,0.482,0.962,0.692,0.309,0.552,0.519,���k��,3.8,��
2024/02/12,23:00,0.508,0.769,0.481,0.963,0.693,0.309,0.553,0.518,���k��,3.1,��
2024/02/12,23:10,0.506,0.769,0.482,0.965,0.691,0.308,0.552,0.519,���k��,3.2,��
2024/02/12,23:20,0.505,0.769,0.482,0.964,0.692,0.310,0.553,0.519,���k��,2.3,��
2024/02/12,23:30,0.506,0.768,0.481,0.964,0.691,0.308,0.553,0.519,���k��,2.2,��
2024/02/12,23:40,0.507,0.766,0.482,0.962,0.692,0.308,0.551,0.519,���k��,3.1,��
2024/02/12,23:50,0.506,0.770,0.480,0.963,0.693,0.309,0.550,0.518,���k��,3.3,��
